GAP3241 RPLL-RPVE

Flight info

Callsign GAP3241
Flight time 0h 37m
Altitude 27000
Route VERDE2R VERDE W24 TAPER TAPER7B
Aircraft A20N/M-SDE2E3FGHIRWXY/LB1

Departure

Time 2026-04-24 13:51
Airport Ninoy Aquino International Airport (RPLL)

Arrival

Time 2026-04-24 14:28
Airport Godofredo P. Ramos Airport (RPVE)
Time Latitude Longitude Altitude Speed Heading
2026-04-24 13:10 14.50994 121.01438 82 ft 0 kts 251°
2026-04-24 13:35 14.50997 121.01445 82 ft 2 kts 252°
2026-04-24 13:36 14.51001 121.01460 82 ft 2 kts 251°
2026-04-24 13:36 14.51006 121.01475 82 ft 2 kts 252°
2026-04-24 13:36 14.51011 121.01489 82 ft 2 kts 251°
2026-04-24 13:36 14.51015 121.01502 82 ft 0 kts 252°
2026-04-24 13:37 14.51020 121.01512 82 ft 2 kts 218°
2026-04-24 13:37 14.51034 121.01517 82 ft 2 kts 169°
2026-04-24 13:37 14.51043 121.01513 82 ft 0 kts 137°
2026-04-24 13:37 14.51039 121.01516 82 ft 3 kts 140°
2026-04-24 13:38 14.51013 121.01543 82 ft 3 kts 135°
2026-04-24 13:38 14.51006 121.01550 82 ft 0 kts 135°
2026-04-24 13:43 14.51006 121.01551 82 ft 1 kts 135°
2026-04-24 13:43 14.50981 121.01576 82 ft 8 kts 134°
2026-04-24 13:43 14.50937 121.01622 82 ft 9 kts 136°
2026-04-24 13:43 14.50891 121.01666 82 ft 6 kts 151°
2026-04-24 13:44 14.50851 121.01649 82 ft 7 kts 238°
2026-04-24 13:44 14.50823 121.01597 82 ft 8 kts 241°
2026-04-24 13:44 14.50790 121.01537 82 ft 10 kts 242°
2026-04-24 13:44 14.50753 121.01469 82 ft 11 kts 240°
2026-04-24 13:45 14.50711 121.01395 82 ft 12 kts 240°
2026-04-24 13:45 14.50657 121.01299 82 ft 17 kts 240°
2026-04-24 13:45 14.50593 121.01184 82 ft 19 kts 240°
2026-04-24 13:45 14.50520 121.01052 82 ft 22 kts 240°
2026-04-24 13:46 14.50442 121.00909 82 ft 23 kts 239°
2026-04-24 13:46 14.50359 121.00762 82 ft 23 kts 240°
2026-04-24 13:46 14.50280 121.00619 82 ft 22 kts 239°
2026-04-24 13:46 14.50202 121.00481 82 ft 22 kts 239°
2026-04-24 13:47 14.50127 121.00345 82 ft 21 kts 242°
2026-04-24 13:47 14.50053 121.00210 82 ft 21 kts 240°
2026-04-24 13:47 14.49980 121.00078 82 ft 20 kts 240°
2026-04-24 13:47 14.49933 120.99994 82 ft 10 kts 239°
2026-04-24 13:48 14.49889 120.99963 82 ft 0 kts 176°
2026-04-24 13:48 14.49888 120.99963 82 ft 0 kts 176°
2026-04-24 13:49 14.49875 120.99966 82 ft 3 kts 165°
2026-04-24 13:49 14.49842 120.99982 82 ft 6 kts 150°
2026-04-24 13:49 14.49798 121.00010 82 ft 5 kts 144°
2026-04-24 13:49 14.49794 121.00033 82 ft 1 kts 56°
2026-04-24 13:50 14.49795 121.00033 82 ft 0 kts 56°
2026-04-24 13:50 14.49802 121.00045 82 ft 13 kts 57°
2026-04-24 13:50 14.49989 121.00379 82 ft 89 kts 61°
2026-04-24 13:50 14.50397 121.01119 82 ft 147 kts 59°
2026-04-24 13:51 14.50965 121.02142 369 ft 168 kts 59°
2026-04-24 13:51 14.51515 121.03176 1023 ft 165 kts 62°
2026-04-24 13:51 14.52008 121.04229 1668 ft 165 kts 59°
2026-04-24 13:51 14.52608 121.05251 2203 ft 174 kts 57°
2026-04-24 13:52 14.53271 121.06358 2657 ft 191 kts 59°
2026-04-24 13:52 14.53989 121.07601 3129 ft 208 kts 60°
2026-04-24 13:52 14.54751 121.08959 3485 ft 234 kts 61°
2026-04-24 13:52 14.55599 121.10480 4035 ft 252 kts 61°
2026-04-24 13:53 14.56282 121.12200 4651 ft 266 kts 83°
2026-04-24 13:53 14.56104 121.14100 5347 ft 275 kts 112°
2026-04-24 13:53 14.55069 121.15728 6258 ft 276 kts 135°
2026-04-24 13:53 14.53677 121.17114 7119 ft 280 kts 136°
2026-04-24 13:54 14.52272 121.18526 7928 ft 285 kts 135°
2026-04-24 13:54 14.50857 121.19971 8775 ft 289 kts 135°
2026-04-24 13:54 14.49370 121.21415 9550 ft 294 kts 144°
2026-04-24 13:54 14.47501 121.22169 10298 ft 297 kts 176°
2026-04-24 13:55 14.45423 121.21918 10941 ft 305 kts 193°
2026-04-24 13:55 14.43286 121.21368 11316 ft 322 kts 194°
2026-04-24 13:55 14.41047 121.20805 11648 ft 340 kts 193°
2026-04-24 13:55 14.38667 121.20255 11946 ft 358 kts 192°
2026-04-24 13:56 14.36153 121.19714 12391 ft 369 kts 192°
2026-04-24 13:56 14.33637 121.19198 13027 ft 372 kts 191°
2026-04-24 13:56 14.31049 121.18681 13697 ft 375 kts 191°
2026-04-24 13:56 14.28485 121.18176 14295 ft 379 kts 191°
2026-04-24 13:57 14.25866 121.17665 14884 ft 383 kts 191°
2026-04-24 13:57 14.23227 121.17153 15428 ft 386 kts 191°
2026-04-24 13:57 14.20543 121.16634 15960 ft 390 kts 191°
2026-04-24 13:57 14.17823 121.16109 16470 ft 393 kts 191°
2026-04-24 13:58 14.15108 121.15585 16960 ft 397 kts 191°
2026-04-24 13:58 14.12355 121.15054 17429 ft 400 kts 192°
2026-04-24 13:58 14.09609 121.14525 17916 ft 403 kts 192°
2026-04-24 13:58 14.06839 121.13991 18410 ft 406 kts 192°
2026-04-24 13:59 14.04019 121.13446 18912 ft 408 kts 192°
2026-04-24 13:59 14.01209 121.12904 19402 ft 411 kts 192°
2026-04-24 13:59 13.98363 121.12355 19885 ft 413 kts 191°
2026-04-24 13:59 13.95509 121.11807 20360 ft 416 kts 192°
2026-04-24 14:00 13.92651 121.11257 20832 ft 419 kts 192°
2026-04-24 14:00 13.89756 121.10699 21310 ft 421 kts 192°
2026-04-24 14:00 13.86859 121.10143 21778 ft 423 kts 192°
2026-04-24 14:00 13.83952 121.09586 22237 ft 425 kts 191°
2026-04-24 14:01 13.81011 121.09026 22690 ft 428 kts 192°
2026-04-24 14:01 13.78063 121.08462 23121 ft 430 kts 191°
2026-04-24 14:01 13.75072 121.07889 23543 ft 433 kts 191°
2026-04-24 14:01 13.72100 121.07320 23953 ft 436 kts 192°
2026-04-24 14:02 13.69097 121.06745 24355 ft 438 kts 192°
2026-04-24 14:02 13.66048 121.06162 24743 ft 441 kts 192°
2026-04-24 14:02 13.63004 121.05582 25120 ft 444 kts 192°
2026-04-24 14:02 13.59956 121.04999 25487 ft 447 kts 192°
2026-04-24 14:03 13.56864 121.04408 25854 ft 449 kts 192°
2026-04-24 14:03 13.53739 121.03893 26197 ft 453 kts 185°
2026-04-24 14:03 13.50601 121.04094 26516 ft 458 kts 170°
2026-04-24 14:03 13.47560 121.05150 26861 ft 462 kts 155°
2026-04-24 14:04 13.44792 121.06901 26984 ft 465 kts 147°
2026-04-24 14:04 13.42138 121.08814 26989 ft 464 kts 146°
2026-04-24 14:04 13.39494 121.10736 27001 ft 463 kts 146°
2026-04-24 14:04 13.36828 121.12646 27010 ft 463 kts 146°
2026-04-24 14:05 13.34162 121.14524 27018 ft 463 kts 147°
2026-04-24 14:05 13.31460 121.16409 27021 ft 463 kts 147°
2026-04-24 14:05 13.28799 121.18264 27024 ft 464 kts 147°
2026-04-24 14:05 13.26116 121.20138 27017 ft 464 kts 147°
2026-04-24 14:06 13.23433 121.22015 27006 ft 464 kts 147°
2026-04-24 14:06 13.20766 121.23883 26992 ft 464 kts 147°
2026-04-24 14:06 13.18068 121.25774 26763 ft 463 kts 147°
2026-04-24 14:06 13.15395 121.27647 26515 ft 460 kts 147°
2026-04-24 14:07 13.12752 121.29498 26269 ft 458 kts 147°
2026-04-24 14:07 13.10104 121.31352 26021 ft 456 kts 147°
2026-04-24 14:07 13.07486 121.33186 25773 ft 454 kts 146°
2026-04-24 14:07 13.04845 121.35034 25524 ft 452 kts 146°
2026-04-24 14:08 13.02254 121.36848 25277 ft 451 kts 146°
2026-04-24 14:08 12.99662 121.38661 25026 ft 449 kts 146°
2026-04-24 14:08 12.97053 121.40488 24778 ft 447 kts 146°
2026-04-24 14:08 12.94486 121.42284 24502 ft 445 kts 146°
2026-04-24 14:09 12.91941 121.44064 24182 ft 442 kts 146°
2026-04-24 14:09 12.89382 121.45853 23792 ft 440 kts 146°
2026-04-24 14:09 12.86861 121.47607 23330 ft 436 kts 146°
2026-04-24 14:09 12.84340 121.49359 22838 ft 432 kts 146°
2026-04-24 14:10 12.81861 121.51083 22339 ft 428 kts 146°
2026-04-24 14:10 12.79388 121.52806 21832 ft 424 kts 146°
2026-04-24 14:10 12.76955 121.54504 21325 ft 420 kts 146°
2026-04-24 14:10 12.74531 121.56197 20796 ft 417 kts 146°
2026-04-24 14:11 12.72136 121.57870 20254 ft 412 kts 145°
2026-04-24 14:11 12.69793 121.59506 19666 ft 409 kts 145°
2026-04-24 14:11 12.65082 121.62795 18466 ft 403 kts 145°
2026-04-24 14:12 12.62764 121.64414 17880 ft 400 kts 145°
2026-04-24 14:12 12.60452 121.66032 17291 ft 398 kts 145°
2026-04-24 14:12 12.58160 121.67645 16723 ft 395 kts 145°
2026-04-24 14:12 12.55894 121.69239 16172 ft 391 kts 145°
2026-04-24 14:13 12.53665 121.70802 15639 ft 388 kts 145°
2026-04-24 14:13 12.51447 121.72353 15105 ft 384 kts 145°
2026-04-24 14:13 12.49231 121.73901 14567 ft 380 kts 146°
2026-04-24 14:13 12.47046 121.75427 14021 ft 377 kts 146°
2026-04-24 14:14 12.44876 121.76939 13469 ft 374 kts 146°
2026-04-24 14:14 12.42741 121.78427 12920 ft 371 kts 146°
2026-04-24 14:14 12.38473 121.81374 11826 ft 365 kts 148°
2026-04-24 14:15 12.36234 121.82604 11300 ft 362 kts 155°
2026-04-24 14:15 12.33878 121.83528 10769 ft 359 kts 161°
2026-04-24 14:15 12.31472 121.84270 10344 ft 354 kts 163°
2026-04-24 14:15 12.29090 121.84971 10105 ft 356 kts 163°
2026-04-24 14:16 12.26709 121.85669 9875 ft 344 kts 163°
2026-04-24 14:16 12.24450 121.86335 9782 ft 328 kts 163°
2026-04-24 14:16 12.22274 121.86982 9703 ft 312 kts 163°
2026-04-24 14:17 12.18251 121.88181 9581 ft 293 kts 162°
2026-04-24 14:17 12.16272 121.88773 9401 ft 292 kts 162°
2026-04-24 14:17 12.12367 121.89936 8863 ft 289 kts 162°
2026-04-24 14:18 12.10432 121.90511 8550 ft 288 kts 162°
2026-04-24 14:18 12.08491 121.91087 8223 ft 286 kts 162°
2026-04-24 14:18 12.06569 121.91617 7879 ft 286 kts 169°
2026-04-24 14:18 12.04600 121.91439 7518 ft 289 kts 200°
2026-04-24 14:19 12.02952 121.90250 7173 ft 290 kts 229°
2026-04-24 14:19 12.01796 121.88565 6861 ft 288 kts 236°
2026-04-24 14:19 12.00689 121.86874 6546 ft 285 kts 235°
2026-04-24 14:19 11.99573 121.85198 6119 ft 287 kts 235°
2026-04-24 14:20 11.98434 121.83514 5659 ft 290 kts 234°
2026-04-24 14:20 11.97278 121.81824 5265 ft 289 kts 234°
2026-04-24 14:20 11.96116 121.80132 4893 ft 288 kts 234°
2026-04-24 14:20 11.94957 121.78445 4507 ft 287 kts 234°
2026-04-24 14:21 11.93811 121.76780 4126 ft 286 kts 234°
2026-04-24 14:21 11.92658 121.75127 3866 ft 282 kts 230°
2026-04-24 14:21 11.91143 121.73875 3831 ft 276 kts 198°
2026-04-24 14:21 11.89326 121.73678 3797 ft 252 kts 163°
2026-04-24 14:22 11.87785 121.74365 3794 ft 231 kts 146°
2026-04-24 14:22 11.86441 121.75157 3777 ft 216 kts 146°
2026-04-24 14:22 11.84209 121.76756 3664 ft 178 kts 117°
2026-04-24 14:23 11.83899 121.77924 3455 ft 165 kts 88°
2026-04-24 14:23 11.84165 121.79019 3275 ft 156 kts 66°
2026-04-24 14:23 11.84647 121.79980 3099 ft 148 kts 64°
2026-04-24 14:23 11.85115 121.80891 2927 ft 140 kts 64°
2026-04-24 14:24 11.85564 121.81770 2780 ft 139 kts 64°
2026-04-24 14:24 11.86013 121.82653 2623 ft 139 kts 64°
2026-04-24 14:24 11.86453 121.83524 2471 ft 138 kts 64°
2026-04-24 14:24 11.86896 121.84403 2313 ft 138 kts 64°
2026-04-24 14:25 11.87336 121.85275 2120 ft 138 kts 64°
2026-04-24 14:25 11.87778 121.86153 1934 ft 137 kts 64°
2026-04-24 14:25 11.88215 121.87026 1752 ft 137 kts 65°
2026-04-24 14:25 11.88651 121.87894 1571 ft 136 kts 64°
2026-04-24 14:26 11.89081 121.88751 1390 ft 137 kts 64°
2026-04-24 14:26 11.89518 121.89623 1212 ft 136 kts 64°
2026-04-24 14:26 11.89957 121.90496 1030 ft 137 kts 64°
2026-04-24 14:26 11.90395 121.91369 837 ft 137 kts 64°
2026-04-24 14:27 11.90801 121.92159 678 ft 137 kts 62°
2026-04-24 14:27 11.91263 121.93011 537 ft 135 kts 62°
2026-04-24 14:27 11.91702 121.93860 354 ft 133 kts 64°
2026-04-24 14:27 11.92114 121.94701 146 ft 131 kts 64°
2026-04-24 14:28 11.92506 121.95494 30 ft 114 kts 63°
2026-04-24 14:28 11.92803 121.96085 30 ft 73 kts 62°
2026-04-24 14:28 11.92937 121.96345 30 ft 18 kts 62°
2026-04-24 14:28 11.92956 121.96445 30 ft 12 kts 121°
2026-04-24 14:29 11.92890 121.96491 30 ft 11 kts 151°
2026-04-24 14:29 11.92816 121.96524 30 ft 11 kts 175°
2026-04-24 14:29 11.92772 121.96487 30 ft 8 kts 246°
2026-04-24 14:29 11.92755 121.96452 30 ft 1 kts 242°
2026-04-24 14:30 11.92741 121.96439 30 ft 3 kts 198°
2026-04-24 14:30 11.92723 121.96446 30 ft 3 kts 145°
2026-04-24 14:30 11.92706 121.96457 30 ft 1 kts 151°
2026-04-24 14:30 11.92697 121.96461 30 ft 0 kts 154°
2026-04-24 14:31 11.92696 121.96461 30 ft 0 kts 153°